Weather History for Madison, MN

Change the Weather History Date:

Wednesday, June 26, 2013

  Actual Average (KAQP) Record (KAQP)
Temperature  
Mean Temperature 75 °F -  
Max Temperature 84 °F 78 °F 89 °F (1998)
Min Temperature 66 °F 56 °F 44 °F (2004)
Cooling Degree Days 10    
Growing Degree Days 25 (Base 50)    
Moisture  
Dew Point 63 °F    
Average Humidity 67    
Maximum Humidity 94    
Minimum Humidity 37    
Precipitation  
Precipitation 0.43 in - - ()
Sea Level Pressure  
Sea Level Pressure 29.76 in    
Wind  
Wind Speed 7 mph (WNW)    
Max Wind Speed 20 mph    
Max Gust Speed 28 mph    
Visibility 10 miles    
Events Rain , Thunderstorm    
Averages and records for this station are not official NWS values.
T = Trace of Precipitation, MM = Missing Value Source: NWS Daily Summary

Daily Weather History Graph

Daily Weather History Graph

Search for Another Location

Airport:

Trip Planner

Search our weather history database for the weather conditions in past years. The results will help you decide how hot, cold, wet, or windy it might be!

Date:

Astronomy

Jun. 26, 2013 Rise Set
Actual Time 5:39 AM CDT 9:15 PM CDT
Civil Twilight 5:02 AM CDT 9:52 PM CDT
Nautical Twilight 4:12 AM CDT 10:42 PM CDT
Astronomical Twilight 3:07 AM CDT 11:47 PM CDT
Moon 11:26 PM CDT (6/26) 9:43 AM CDT (6/26)
Length of Visible Light 16h 50m
Length of Day
15h 35m
Waning Gibbous, 85% of the Moon is Illuminated
Jun 26
Waning Gibbous
Jun 29
Last Quarter
Jul 8
New
Jul 15
First Quarter
Jul 22
Full

Hourly Weather History & Observations

Time (CDT) Temp. Heat Index Dew Point Humidity Pressure Visibility Wind Dir Wind Speed Gust Speed Precip Events Conditions
12:13 AM 73.4 °F - 68.0 °F 83% 29.66 in 10.0 mi SSE 5.8 mph - N/A   Clear
12:33 AM 71.6 °F - 66.2 °F 83% 29.68 in 10.0 mi Calm Calm - N/A   Clear
12:54 AM 71.6 °F - 66.2 °F 83% 29.67 in 10.0 mi SE 4.6 mph - N/A   Clear
1:13 AM 71.6 °F - 66.2 °F 83% 29.68 in 10.0 mi South 3.5 mph - N/A   Clear
1:33 AM 71.6 °F - 66.2 °F 83% 29.67 in 10.0 mi South 3.5 mph - N/A   Clear
1:54 AM 71.6 °F - 66.2 °F 83% 29.66 in 10.0 mi Calm Calm - N/A   Clear
2:13 AM 71.6 °F - 66.2 °F 83% 29.66 in 10.0 mi SE 3.5 mph - N/A   Clear
2:33 AM 71.6 °F - 66.2 °F 83% 29.66 in 10.0 mi Calm Calm - N/A   Scattered Clouds
2:54 AM 71.6 °F - 66.2 °F 83% 29.65 in 2.0 mi ENE 5.8 mph - 0.32 in Rain , Thunderstorm Heavy Thunderstorms and Rain
3:14 AM 69.8 °F - 66.2 °F 88% 29.66 in 10.0 mi NE 8.1 mph - 0.01 in Thunderstorm Scattered Clouds
3:33 AM 69.8 °F - 66.2 °F 88% 29.67 in 10.0 mi East 4.6 mph - 0.01 in Thunderstorm Clear
3:54 AM 66.2 °F - 64.4 °F 94% 29.67 in 10.0 mi North 3.5 mph - 0.01 in   Clear
4:14 AM 66.2 °F - 64.4 °F 94% 29.67 in 10.0 mi Calm Calm - N/A   Clear
4:33 AM 68.0 °F - 64.4 °F 88% 29.67 in 10.0 mi Calm Calm - N/A   Clear
4:54 AM 66.2 °F - 64.4 °F 94% 29.67 in 10.0 mi Calm Calm - N/A   Clear
5:14 AM 66.2 °F - 64.4 °F 94% 29.67 in 10.0 mi SW 3.5 mph - N/A   Clear
5:33 AM 66.2 °F - 64.4 °F 94% 29.67 in 10.0 mi SW 6.9 mph - N/A   Clear
5:54 AM 66.2 °F - 64.4 °F 94% 29.68 in 7.0 mi WSW 5.8 mph - N/A   Clear
6:14 AM 66.2 °F - 64.4 °F 94% 29.69 in 7.0 mi West 5.8 mph - N/A   Clear
6:33 AM 68.0 °F - 64.4 °F 88% 29.71 in 10.0 mi WSW 4.6 mph - N/A   Clear
6:54 AM 69.8 °F - 64.4 °F 83% 29.71 in 10.0 mi Calm Calm - N/A   Clear
7:13 AM 69.8 °F - 64.4 °F 83% 29.71 in 10.0 mi West 4.6 mph - N/A   Clear
7:34 AM 71.6 °F - 66.2 °F 83% 29.72 in 10.0 mi WNW 9.2 mph - N/A   Clear
7:54 AM 71.6 °F - 66.2 °F 83% 29.73 in 10.0 mi WNW 10.4 mph - N/A   Clear
8:13 AM 73.4 °F - 66.2 °F 78% 29.73 in 10.0 mi WNW 10.4 mph - N/A   Clear
8:34 AM 73.4 °F - 66.2 °F 78% 29.73 in 10.0 mi WNW 11.5 mph - N/A   Clear
8:54 AM 75.2 °F - 66.2 °F 73% 29.73 in 10.0 mi NW 8.1 mph - N/A   Clear
9:13 AM 75.2 °F - 64.4 °F 69% 29.74 in 10.0 mi NW 10.4 mph - N/A   Clear
9:34 AM 75.2 °F - 64.4 °F 69% 29.74 in 10.0 mi WNW 11.5 mph - N/A   Clear
9:54 AM 77.0 °F - 64.4 °F 65% 29.74 in 10.0 mi WNW 10.4 mph - N/A   Clear
10:13 AM 78.8 °F - 66.2 °F 65% 29.74 in 10.0 mi WNW 10.4 mph 20.7 mph N/A   Clear
10:34 AM 78.8 °F - 64.4 °F 61% 29.76 in 10.0 mi WNW 15.0 mph - N/A   Clear
10:54 AM 78.8 °F - 64.4 °F 61% 29.76 in 10.0 mi WNW 15.0 mph 19.6 mph N/A   Clear
11:13 AM 78.8 °F - 64.4 °F 61% 29.77 in 10.0 mi NW 12.7 mph - N/A   Clear
11:34 AM 80.6 °F 81.8 °F 62.6 °F 54% 29.78 in 10.0 mi WNW 15.0 mph 23.0 mph N/A   Clear
11:54 AM 80.6 °F 81.8 °F 62.6 °F 54% 29.78 in 10.0 mi WNW 16.1 mph 24.2 mph N/A   Clear
12:13 PM 80.6 °F 81.8 °F 62.6 °F 54% 29.78 in 10.0 mi WNW 15.0 mph 23.0 mph N/A   Clear
12:34 PM 82.4 °F 83.4 °F 62.6 °F 51% 29.79 in 10.0 mi NW 13.8 mph 21.9 mph N/A   Clear
12:54 PM 80.6 °F 81.8 °F 62.6 °F 54% 29.79 in 10.0 mi WNW 16.1 mph 24.2 mph N/A   Clear
1:13 PM 80.6 °F 81.5 °F 60.8 °F 51% 29.79 in 10.0 mi NW 19.6 mph 25.3 mph N/A   Clear
1:34 PM 82.4 °F 83.4 °F 62.6 °F 51% 29.80 in 10.0 mi NW 13.8 mph 23.0 mph N/A   Clear
1:54 PM 82.4 °F 82.9 °F 60.8 °F 48% 29.80 in 10.0 mi WNW 17.3 mph 20.7 mph N/A   Clear
2:13 PM 82.4 °F 82.9 °F 60.8 °F 48% 29.80 in 10.0 mi NNW 17.3 mph 23.0 mph N/A   Clear
2:34 PM 82.4 °F 82.0 °F 57.2 °F 42% 29.80 in 10.0 mi NNW 19.6 mph 23.0 mph N/A   Clear
2:54 PM 82.4 °F 82.0 °F 57.2 °F 42% 29.80 in 10.0 mi NW 13.8 mph 27.6 mph N/A   Clear
3:13 PM 82.4 °F 82.0 °F 57.2 °F 42% 29.80 in 10.0 mi NW 16.1 mph 23.0 mph N/A   Clear
3:34 PM 84.2 °F 83.0 °F 55.4 °F 37% 29.80 in 10.0 mi NW 17.3 mph 21.9 mph N/A   Clear
3:54 PM 84.2 °F 83.0 °F 55.4 °F 37% 29.80 in 10.0 mi NW 17.3 mph 25.3 mph N/A   Clear
4:13 PM 82.4 °F 81.7 °F 55.4 °F 39% 29.79 in 10.0 mi NW 13.8 mph 19.6 mph N/A   Clear
4:34 PM 84.2 °F 83.5 °F 57.2 °F 40% 29.79 in 10.0 mi NW 12.7 mph 19.6 mph N/A   Clear
4:54 PM 84.2 °F 83.5 °F 57.2 °F 40% 29.80 in 10.0 mi WNW 13.8 mph - N/A   Clear
5:13 PM 82.4 °F 82.5 °F 59.0 °F 45% 29.79 in 10.0 mi NW 8.1 mph - N/A   Clear
5:34 PM 84.2 °F 83.5 °F 57.2 °F 40% 29.79 in 10.0 mi WNW 10.4 mph 16.1 mph N/A   Clear
5:54 PM 84.2 °F 83.8 °F 59.0 °F 42% 29.79 in 10.0 mi NW 8.1 mph - N/A   Clear
6:13 PM 84.2 °F 83.5 °F 57.2 °F 40% 29.79 in 10.0 mi WNW 11.5 mph - N/A   Clear
6:34 PM 82.4 °F 82.0 °F 57.2 °F 42% 29.79 in 10.0 mi WNW 8.1 mph - N/A   Clear
6:54 PM 80.6 °F 81.1 °F 59.0 °F 48% 29.80 in 10.0 mi WNW 6.9 mph - N/A   Clear
7:13 PM 80.6 °F 81.5 °F 60.8 °F 51% 29.80 in 10.0 mi WNW 6.9 mph - N/A   Clear
7:34 PM 78.8 °F - 60.8 °F 54% 29.80 in 10.0 mi WNW 3.5 mph - N/A   Clear
7:54 PM 78.8 °F - 59.0 °F 51% 29.81 in 10.0 mi Calm Calm - N/A   Clear
8:13 PM 78.8 °F - 62.6 °F 57% 29.81 in 10.0 mi Calm Calm - N/A   Clear
8:34 PM 77.0 °F - 60.8 °F 57% 29.82 in 10.0 mi NNW 4.6 mph - N/A   Clear
8:54 PM 77.0 °F - 62.6 °F 61% 29.82 in 10.0 mi Calm Calm - N/A   Clear
9:13 PM 75.2 °F - 64.4 °F 69% 29.83 in 10.0 mi Calm Calm - N/A Rain Light Rain
9:34 PM 75.2 °F - 62.6 °F 65% 29.83 in 10.0 mi North 6.9 mph - N/A Rain Light Rain
9:54 PM 73.4 °F - 62.6 °F 69% 29.87 in 10.0 mi NW 10.4 mph 19.6 mph 0.02 in Rain , Thunderstorm Thunderstorms and Rain
10:13 PM 69.8 °F - 64.4 °F 83% 29.87 in 10.0 mi West 5.8 mph - 0.07 in Rain Heavy Rain
10:34 PM 69.8 °F - 62.6 °F 78% 29.85 in 10.0 mi Calm Calm - 0.08 in   Mostly Cloudy
10:54 PM 69.8 °F - 64.4 °F 83% 29.84 in 10.0 mi South 4.6 mph - 0.08 in   Scattered Clouds
11:13 PM 68.0 °F - 64.4 °F 88% 29.84 in 10.0 mi SW 6.9 mph - N/A   Clear
11:34 PM 68.0 °F - 64.4 °F 88% 29.84 in 10.0 mi SW 5.8 mph - N/A   Clear
11:54 PM 68.0 °F - 64.4 °F 88% 29.83 in 10.0 mi SW 5.8 mph - N/A   Clear